Location: Bukit Lungun
(2.6833°N, 113.9667°E)
Time: 14:53:22
(UTC+00:00)

Cosmos 1151 Rocket - Pass Details

Date: 02 March 2021
Orbit: 593 x 615 km, 82.5° (Epoch: 20 April)

Event Time Altitude Azimuth Distance (km) Brightness Sun altitude
Rises 21:18:43 0° 173° (S) 2,879 6.7 -19.5°
Reaches altitude 10° 21:21:01 10° 167° (SSE) 1,971 5.9 -19.0°
Maximum altitude 21:25:12 46° 93° (E) 824 4.2 -17.9°
Drops below altitude 10° 21:29:21 10° 20° (NNE) 1,956 5.8 -16.9°
Sets 21:31:37 0° 14° (NNE) 2,854 6.6 -16.3°
